User: anonymous   Login
Location: Laverne
(36.7100°N, 99.8930°W)
Time: 20:37:22
(UTC-06:00)
Language:

Iridium 32 - Orbit

View from above orbital plane
View from above orbital plane
View from above satellite
View from above satellite

Ground track
Ground track

The orbit data is extracted from the following two-line orbital elements,

1 24945U 97051B   17350.17671055  .00000117  00000-0  34855-4 0  9992
2 24945  86.3977 211.0173 0001933  90.4733 269.6684 14.34219525 60501
Epoch (UTC): 16 December 2017 04:14:27
Eccentricity: 0.0001933
inclination: 86.3977°
perigee height: 776 km
apogee height: 779 km
right ascension of ascending node: 211.0173°
argument of perigee: 90.4733°
revolutions per day: 14.34219525
mean anomaly at epoch: 269.6684°
orbit number at epoch: 6050

The dashed part of the orbit path shows where the satellite is in the earth's shadow,  

DLR